Regional Weather Roundup
Issued by NWS

Home | Current Version | Previous Version | Text Only | Print | Product List | Glossary On
Versions: 1 2 3 4 5 6 7 8 9 10 11 12 13 14 15 16 17 18 19 20 21 22 23 24 25 26 27 28 29 30 31 32 33 34 35 36 37 38 39 40 41 42 43 44 45 46 47 48 49 50
000
ASUS44 KMEG 291010
RWRTN
TENNESSEE HOURLY STATE WEATHER ROUNDUP
NATIONAL WEATHER SERVICE MEMPHIS TN
400 AM CST MON DEC 29 2014

TNZ002-004-019-021-049-052-054-088>092-291100-
WEST TENNESSEE

CITY           SKY/WX    TMP DP  RH WIND       PRES   REMARKS
MEMPHIS INTL   CLOUDY    38  34  85 N7        30.16F WCI  33
NWS MEMPHIS      N/A     37 N/A N/A MISG        N/A
JACKSON        CLOUDY    37  33  85 NE7       30.16F WCI  32
DYERSBURG      CLOUDY    36  21  55 NE12      30.20F WCI  27
UNION CITY     CLOUDY    30  28  93 N8        30.19F WCI  23
PARIS          CLOUDY    30  28  93 N7        30.17F WCI  23
HUNTINGDON     CLOUDY    33  29  86 N6        30.17F WCI  27
LEXINGTON      CLOUDY    34  34 100 N6        30.13F WCI  29
SAVANNAH       CLOUDY    37  37 100 N6        30.13F WCI  33
$$

TNZ008-025-027-028-033-062-065-066-291100-
NORTH MIDDLE TENNESSEE

CITY           SKY/WX    TMP DP  RH WIND       PRES   REMARKS
NASHVILLE      CLOUDY    37  36  96 N8        30.15F FOG     WCI  31
CLARKSVILLE    CLOUDY    35  32  88 N9        30.17F WCI  28
SMYRNA         CLOUDY    38  37  96 N9        30.15S FOG     WCI  31
COOKEVILLE     CLOUDY    39  39 100 N3        30.09F
CROSSVILLE     CLOUDY    42  39  89 N3        30.07F FOG
$$

TNZ061-075-076-078-094-096-097-291100-
SOUTH MIDDLE TENNESSEE

CITY           SKY/WX    TMP DP  RH WIND       PRES   REMARKS
FAYETTEVILLE   CLOUDY    37  37 100 N8        30.09S WCI  31
TULLAHOMA      CLOUDY    37  37 100 N5        30.10S WCI  34
WINCHESTER     CLOUDY    41  39  93 CALM      30.09F
MCMINNVILLE    CLOUDY    39  39 100 CALM      30.10S
COLUMBIA       CLOUDY   N/A N/A N/A N3        30.11F
SHELBYVILLE    CLOUDY    39  37  93 N7        30.12S WCI  34
$$

TNZ017-018-042-046-047-291100-
NORTHEAST TENNESSEE

CITY           SKY/WX    TMP DP  RH WIND       PRES   REMARKS
TRI CITIES     LGT RAIN  47  47 100 CALM      30.06F VSB 1
ELIZABETHTON   LGT RAIN  46  46 100 CALM      30.06F
$$

TNZ012-013-036-069-073-074-291100-
CENTRAL EAST TENNESSEE

CITY           SKY/WX    TMP DP  RH WIND       PRES   REMARKS
KNOXVILLE      LGT RAIN  46  45  96 N7        30.06F
OAK RIDGE      LGT RAIN  45  43  93 VRB3      30.08F
GATLINBURG     CLOUDY    46  46 100 NW3       30.05F
MORRISTOWN     CLOUDY    46  46 100 CALM      30.06F VSB 1/4
$$

TNZ083-085-099-291100-
SOUTHEAST TENNESSEE

CITY           SKY/WX    TMP DP  RH WIND       PRES   REMARKS
CHATTANOOGA    LGT RAIN  49  48  97 N3        30.06F
$$

SKY/WX REPORTED AS FAIR MEANS FEW OR NO CLOUDS BELOW
12 THOUSAND FEET.



USA.gov is the U.S. government's official web portal to all federal, state and local government web resources and services.